TimeEST,TemperatureF,Dew PointF,Humidity,Sea Level PressureIn,VisibilityMPH,Wind Direction,Wind SpeedMPH,Gust SpeedMPH,PrecipitationIn,Events,Conditions,WindDirDegrees,DateUTC
12:08 AM,10.4,-0.4,62,30.03,10.0,West,18.4,31.1,0.00,Snow,Light Snow,260,2013-01-22 05:08:00
12:15 AM,8.6,-0.4,67,30.03,10.0,West,17.3,-,0.00,,Scattered Clouds,270,2013-01-22 05:15:00
12:56 AM,8.1,0.1,70,30.14,7.0,WSW,13.8,-,0.00,Snow,Light Snow,250,2013-01-22 05:56:00
1:56 AM,7.2,-4.0,60,30.16,10.0,West,16.1,-,0.00,,Clear,260,2013-01-22 06:56:00
2:56 AM,6.1,-2.9,67,30.18,10.0,WSW,13.8,-,N/A,,Clear,240,2013-01-22 07:56:00
3:56 AM,5.0,-4.0,66,30.19,10.0,West,16.1,-,N/A,,Clear,260,2013-01-22 08:56:00
4:56 AM,5.0,-4.0,66,30.21,10.0,WSW,12.7,-,N/A,,Clear,250,2013-01-22 09:56:00
5:56 AM,5.0,-2.9,70,30.22,10.0,WSW,13.8,-,N/A,,Partly Cloudy,240,2013-01-22 10:56:00
6:56 AM,4.1,-4.0,69,30.25,10.0,WSW,11.5,-,N/A,,Clear,240,2013-01-22 11:56:00
7:56 AM,4.1,-4.0,69,30.27,10.0,WSW,9.2,-,N/A,,Clear,250,2013-01-22 12:56:00
8:56 AM,6.1,-2.9,67,30.29,10.0,WSW,11.5,-,N/A,,Clear,250,2013-01-22 13:56:00
9:56 AM,8.1,-1.8,64,30.32,10.0,WSW,16.1,-,N/A,,Scattered Clouds,250,2013-01-22 14:56:00
10:32 AM,6.8,-2.2,67,30.21,2.0,West,16.1,23.0,0.00,Snow,Light Snow,270,2013-01-22 15:32:00
10:35 AM,6.8,-2.2,67,30.21,1.2,West,13.8,-,0.00,Snow,Light Snow,270,2013-01-22 15:35:00
10:48 AM,8.6,-0.4,67,30.21,2.0,WSW,15.0,-,0.00,Snow,Light Snow,250,2013-01-22 15:48:00
10:56 AM,8.1,-4.0,58,30.33,10.0,West,13.8,-,0.00,Snow,Light Snow,260,2013-01-22 15:56:00
11:56 AM,10.0,-0.9,61,30.32,10.0,WSW,17.3,-,N/A,,Scattered Clouds,240,2013-01-22 16:56:00
12:56 PM,8.1,-4.9,56,30.31,10.0,West,10.4,-,0.00,Snow,Light Snow,260,2013-01-22 17:56:00
1:56 PM,9.1,-6.0,50,30.30,10.0,West,15.0,-,0.00,,Scattered Clouds,270,2013-01-22 18:56:00
2:56 PM,12.0,-2.9,51,30.31,10.0,WSW,12.7,-,N/A,,Mostly Cloudy,240,2013-01-22 19:56:00
3:56 PM,10.0,-0.9,61,30.32,10.0,WSW,16.1,-,0.00,,Scattered Clouds,240,2013-01-22 20:56:00
4:56 PM,8.1,-1.8,64,30.34,5.0,West,11.5,-,0.00,Snow,Light Snow,260,2013-01-22 21:56:00
5:01 PM,8.6,-0.4,67,30.22,1.8,West,8.1,-,0.00,Snow,Light Snow,270,2013-01-22 22:01:00
5:04 PM,6.8,-0.4,72,30.22,1.2,WSW,10.4,-,0.00,Snow,Light Snow,250,2013-01-22 22:04:00
5:11 PM,6.8,1.4,79,30.22,1.5,West,8.1,-,0.00,Snow,Light Snow,260,2013-01-22 22:11:00
5:13 PM,6.8,1.4,79,30.22,2.0,WSW,8.1,-,0.00,Snow,Light Snow,250,2013-01-22 22:13:00
5:19 PM,6.8,1.4,79,30.22,10.0,WSW,6.9,-,0.00,,Mostly Cloudy,250,2013-01-22 22:19:00
5:56 PM,7.2,-0.9,69,30.35,10.0,West,8.1,-,0.00,,Mostly Cloudy,270,2013-01-22 22:56:00
6:56 PM,7.2,-0.9,69,30.37,10.0,WSW,5.8,-,N/A,,Scattered Clouds,250,2013-01-22 23:56:00
7:56 PM,5.0,-1.8,73,30.37,10.0,Calm,Calm,-,N/A,,Clear,0,2013-01-23 00:56:00
8:56 PM,4.1,-1.8,76,30.37,10.0,Calm,Calm,-,N/A,,Scattered Clouds,0,2013-01-23 01:56:00
9:56 PM,4.1,-1.8,76,30.36,10.0,SSW,5.8,-,N/A,,Clear,210,2013-01-23 02:56:00
10:56 PM,3.0,-0.9,84,30.35,10.0,SW,8.1,-,N/A,,Clear,230,2013-01-23 03:56:00
11:56 PM,3.0,-1.8,80,30.35,10.0,WSW,8.1,-,N/A,,Clear,240,2013-01-23 04:56:00